Flag for U.S.A. Weather past 2 weeks in Elizabeth, New Jersey, U.S.A.

Now
55 °F

Passing clouds.


Feels Like: 51 °F
Forecast: 45 / 57 °F
Wind: 14 mph from Northeast

Location: Newark International Airport


UV Index: 5 (Moderate)

Visibility: 10 mi


Pressure: 30.34 "Hg

Humidity: 29%

Dew point: 23 °F

Location of ElizabethLocation

Historic Weather in Elizabeth

°F

Elizabeth temperature yesterday

Maximum temperature yesterday: 47 °F (at 3:51 PM)
Minimum temperature yesterday: 37 °F (at 6:51 AM)
Average temperature yesterday: 42 °F

Past Weeks' High & Low Weather Summary

 TemperatureHumidityPressure
High83 °F (Apr 13, 2:51 PM)100% (Apr 7, 10:51 PM)30.73 "Hg (Apr 7, 10:51 PM)
Low31 °F (Apr 16, 5:51 AM)16% (Apr 19, 3:51 PM)29.40 "Hg (Apr 8, 12:51 PM)
Average53 °F55%30.06 "Hg
* Reported Apr 4 10:51 PM — Apr 19 10:51 PM, Elizabeth, Weather by CustomWeather, © 2014

Note: Actual official high and low records may vary slightly from our data, if they occured in-between our weather recording intervals... More about our weather records

Advertising

Historic Weather Conditions — Data for Previous 24 hours

 ConditionsComfort  
Time TempWeatherWind HumidityBarometerVisibility
10:51 PM
Apr 19
55 °FPassing clouds.14 mph29%30.34 "Hg10 mi
9:51 PM58 °FPassing clouds.14 mph28%30.32 "Hg10 mi
8:51 PM60 °FPassing clouds.5 mph27%30.29 "Hg10 mi
7:51 PM63 °FPartly sunny.7 mph20%30.25 "Hg10 mi
6:51 PM64 °FPartly sunny.12 mph21%30.24 "Hg10 mi
5:51 PM67 °FPartly sunny.10 mph16%30.23 "Hg10 mi
4:51 PM67 °FPartly sunny.6 mph16%30.22 "Hg10 mi
3:51 PM68 °FPartly sunny.10 mph16%30.22 "Hg10 mi
2:51 PM67 °FPartly sunny.17 mph17%30.22 "Hg10 mi
1:51 PM65 °FPartly sunny.14 mph24%30.23 "Hg10 mi
12:51 PM65 °FPartly sunny.15 mph20%30.25 "Hg10 mi
11:51 AM63 °FPartly sunny.10 mph21%30.26 "Hg10 mi
10:51 AM61 °FPartly sunny.10 mph29%30.27 "Hg10 mi
9:51 AM57 °FPartly sunny.10 mph37%30.27 "Hg10 mi
8:51 AM51 °FScattered clouds.3 mph61%30.27 "Hg10 mi
7:51 AM45 °FPartly sunny.3 mph74%30.27 "Hg10 mi
6:51 AM41 °FPassing clouds.6 mph80%30.25 "Hg10 mi
5:51 AM40 °FPartly cloudy.7 mph83%30.24 "Hg10 mi
4:51 AM39 °FPartly cloudy.6 mph82%30.24 "Hg10 mi
3:51 AM39 °FMostly cloudy.5 mph79%30.23 "Hg10 mi
2:51 AM40 °FOvercast.7 mph77%30.24 "Hg10 mi
1:51 AM40 °FOvercast.3 mph73%30.26 "Hg10 mi
12:51 AM40 °FOvercast.6 mph77%30.27 "Hg10 mi
11:51 PM
Apr 18
42 °FMostly cloudy.8 mph71%30.28 "Hg10 mi
Weather by CustomWeather, © 2014

See weather overview